Powrót do katalogu

BLOCK DM-SL DEB

LostHEO
NORAD 34836·DEBRIS· XX

Wystrzelony Apr 20, 2009 z Sea Launch Platform

Loading…

Następne Przeloty (najbliższe 24 godziny)

TLE

NieaktualneSource: Space-Track

Epoka: Apr 21, 2009, 10:01 UTC

1 34836U 09020C   09111.41767703 -.00000037  00000-0  10000-3 0  9997
2 34836 000.3504 315.7812 4689752 355.9365 321.5710 01.81221622    17

Śledź BLOCK DM-SL DEB w czasie rzeczywistym z AllMySat

Download on the App Store